This is the latest recevied weather packets stored in our database for station/object KF5WCW-1. If no packets are shown the sender has not sent any weather packets the latest 10 day(s).
| Time | Temp. | Humidity | Pressure | Rain* | Wind** | Luminosity | Snow |
|---|---|---|---|---|---|---|---|
| 1777381885 | 0° C | 90% | 0 hPa | 0 mm | - | - | - |
| 1777381585 | 0° C | 91% | 0 hPa | 0 mm | - | - | - |
| 1777381285 | 0° C | 92% | 0 hPa | 0 mm | - | - | - |
| 1777380985 | -0.56° C | 92% | 0 hPa | 0 mm | - | - | - |
| 1777380685 | -0.56° C | 92% | 0 hPa | 0 mm | - | - | - |
| 1777380385 | -0.56° C | 92% | 0 hPa | 0 mm | - | - | - |
| 1777380085 | -1.11° C | 93% | 0 hPa | 0 mm | - | - | - |
| 1777379785 | -1.11° C | 92% | 0 hPa | 0 mm | - | - | - |
| 1777379485 | -1.11° C | 93% | 0 hPa | 0 mm | - | - | - |
| 1777379185 | -1.11° C | 93% | 0 hPa | 0 mm | - | - | - |
| 1777378885 | -1.11° C | 93% | 0 hPa | 0 mm | - | - | - |
| 1777378585 | -1.67° C | 92% | 0 hPa | 0 mm | - | - | - |
| 1777378285 | -1.67° C | 93% | 0 hPa | 0 mm | - | - | - |
| 1777377985 | -1.67° C | 91% | 0 hPa | 0 mm | - | - | - |
| 1777377685 | -1.67° C | 91% | 0 hPa | 0 mm | - | - | - |
| 1777377385 | -1.11° C | 91% | 0 hPa | 0 mm | - | - | - |
| 1777377085 | -1.11° C | 91% | 0 hPa | 0 mm | - | - | - |
| 1777376785 | -1.11° C | 92% | 0 hPa | 0 mm | - | - | - |
| 1777376485 | -1.67° C | 93% | 0 hPa | 0 mm | - | - | - |
| 1777376185 | -1.67° C | 89% | 0 hPa | 0 mm | - | - | - |
| 1777375885 | -1.11° C | 92% | 0 hPa | 0 mm | - | - | - |
| 1777375585 | -1.67° C | 93% | 0 hPa | 0 mm | - | - | - |
| 1777375285 | -1.67° C | 93% | 0 hPa | 0 mm | - | - | - |
| 1777374985 | -2.22° C | 94% | 0 hPa | 0 mm | - | - | - |
| 1777374685 | -2.78° C | 93% | 0 hPa | 0 mm | - | - | - |
* Rain latest hour (hover to see other rain measurements)
** Current wind speed in m/s (hover to see current wind gust speed)